Location: Waco, TX
(31.5480°N, 97.1670°W)
Time: 17:20:01
(UTC-05:00)

ISS - Pass Details

Date: 19 August 2018
Orbit: 401 x 409 km, 51.6° (Epoch: 19 August)

Event Time Altitude Azimuth Distance (km) Brightness Sun altitude
Rises 09:43:11 0° 227° (SW) 2,301 -0.3 34.3°
Reaches altitude 10° 09:45:15 10° 228° (SW) 1,445 -1.3 34.8°
Maximum altitude 09:48:29 77° 315° (NW) 414 -3.4 35.5°
Drops below altitude 10° 09:51:44 10° 42° (NE) 1,450 -0.5 36.1°
Sets 09:53:49 0° 44° (NE) 2,311 0.4 36.6°
